Regional Weather Roundup
Issued by NWS

Home | Current Version | Previous Version | Text Only | Print | Product List | Glossary On
Versions: 1 2 3 4 5 6 7 8 9 10 11 12 13 14 15 16 17 18 19 20 21 22 23 24 25 26 27 28 29 30 31 32 33 34 35 36 37 38 39 40 41 42 43 44 45 46 47 48 49 50
000
ASUS46 KSTO 300804
RWRCA

NORTHERN AND CENTRAL CA REGIONAL WEATHER ROUNDUP
NATIONAL WEATHER SERVICE SACRAMENTO CA
100 AM PDT WED JUL 30 2014

NOTE: FAIR INDICATES FEW OR NO CLOUDS BELOW 12,000 FEET WITH NO
SIGNIFICANT WEATHER AND/OR OBSTRUCTIONS TO VISIBILITY.

CAZ001-003-300900-
NORTHWEST AREA

CITY           SKY/WX    TMP DP  RH WIND       PRES   REMARKS
CRESCENT CITY  CLOUDY    55  55 100 CALM      30.07S FOG
UKIAH          CLEAR     71  49  45 CALM      29.97S
$$

CAZ006-505>513-300900-
BAY AREA

CITY           SKY/WX    TMP DP  RH WIND       PRES   REMARKS
SANTA ROSA     MOCLDY    57  54  89 SE5       29.98S
SAN RAFAEL     N/A       63  MM  MM MISG
NAPA           CLEAR     59  56  89 W5        29.98S
CONCORD        CLEAR     65  57  75 CALM      29.95F
OAKLAND CITY   N/A       63  MM  MM MISG
OAKLAND        PTCLDY    60  56  86 NW12      30.00S
SAN FRAN CITY  N/A       58  MM  95 MISG
SAN FRAN ARPT  PTCLDY    61  57  87 W15       29.99F
LIVERMORE      CLEAR     71  52  50 W5        29.96F
HAYWARD        CLEAR     61  60  97 NW7       29.99F
REDWOOD CITY   N/A       MM  MM  MM MISG
MOFFETT ARPT   CLEAR     64  59  83 W3        30.00S
SAN JOSE ARPT  CLEAR     64  59  83 NW6       29.99S
$$
CAZ034-037-514>518-300900-
CENTRAL COAST

CITY           SKY/WX    TMP DP  RH WIND       PRES   REMARKS
WATSONVILLE    CLOUDY    62  58  86 S5        30.01S
SALINAS        CLOUDY    61  58  90 W6        30.01S
MONTEREY       CLOUDY    59  57  93 SW5       30.02S
SAN LUIS OBISP CLOUDY    62  59  90 NW8       30.00S
SANTA MARIA    MOCLDY    64  59  83 N3        30.00F
$$
CAZ015-016-300900-
NORTHERN SACRAMENTO VALLEY

CITY           SKY/WX    TMP DP  RH WIND       PRES   REMARKS
REDDING        CLEAR     77  50  38 CALM      29.94S
RED BLUFF      CLEAR     77  56  48 NW6       29.93F
OROVILLE       CLEAR     84  48  28 E3        29.92S
$$
CAZ016>018-300900-
SOUTHERN SACRAMENTO VALLEY

CITY           SKY/WX    TMP DP  RH WIND       PRES   REMARKS
AUBURN         MOCLDY    81  43  26 E3        29.99F
BEALE AFB      CLEAR     80  42  26 SE5       29.90S
LINCOLN        FAIR      79  43  27 SE9       29.90F
MARYSVILLE     CLEAR     77  49  37 SE7       29.90S
SAC INTL ARPT  PTCLDY    72  54  53 SE8       29.90S
MATHER AIRPORT NOT AVBL
DOWNTOWN SAC   N/A       74  MM  MM MISG
SAC EXEC ARPT  CLEAR     69  56  62 S5        29.91S
VACAVILLE      CLEAR     71  53  52 SW8       29.90F
TRAVIS AFB     CLEAR     65  59  81 SW21      29.89F
$$
CAZ019>021-300900-
SAN JOAQUIN VALLEY

CITY           SKY/WX    TMP DP  RH WIND       PRES   REMARKS
STOCKTON       CLEAR     78  44  29 N3        29.92S
MODESTO        CLEAR     81  48  31 N6        29.91F
MERCED         PTCLDY    81  52  36 NW5       29.91F
LEMOORE        MOCLDY    83  55  38 NW10      29.92F
FRESNO         CLOUDY    87  53  31 NW9       29.92F
HANFORD        CLOUDY    86  57  37 NW10      29.92S
PORTERVILLE    MOCLDY    79  54  41 CALM      29.94F
BAKERSFIELD    MOCLDY    87  49  26 CALM      29.93S
$$
CAZ011-012-071-300900-
NORTHERN MOUNTAINS

CITY           SKY/WX    TMP DP  RH WIND       PRES   REMARKS
YREKA          CLEAR     74  46  36 NE5       30.11R
MOUNT SHASTA   CLEAR     61  40  45 NE5       30.15F
ALTURAS        CLEAR     70  42  36 NE6       30.21S
$$
CAZ011-012-071-300900-
SIERRA NEVADA MTNS

CITY           SKY/WX    TMP DP  RH WIND       PRES   REMARKS
BLUE CANYON    MOCLDY    73  37  27 CALM      30.28S
TRUCKEE        PTCLDY    52  43  71 CALM      30.33S
TAHOE VLY ARPT PTCLDY    55  50  83 S5        30.35F
MAMMOTH LAKES  MOCLDY    57  46  67 N3        30.40S
$$



USA.gov is the U.S. government's official web portal to all federal, state and local government web resources and services.